Flag for USA

Past Weather in Barnstable, Massachusetts, USA — Yesterday and Last 2 Weeks

Now
60 °F

Sunny.


Feels Like: 60 °F
Forecast: 59 / 52 °F
Wind: 16 mph from Northeast

Location: Barnstable Municipal-Boardman Airport
Current Time: Sep 19, 2020 at 3:32:25 pm
Latest Report: Sep 19, 2020 at 2:56 pm
Visibility: 10 mi
Pressure30.26 "Hg
Humidity: 38%
Dew Point: 34 °F
Location of BarnstableLocation

Past Weather in Barnstable — Graph

°F

Barnstable Temperature Yesterday

Maximum temperature yesterday: 66 °F (at 12:56 am)
Minimum temperature yesterday: 58 °F (at 7:56 pm)
Average temperature yesterday: 62 °F

High & Low Weather Summary for the Past Weeks

 TemperatureHumidityPressure
High85 °F (Sep 4, 1:56 pm)100% (Sep 8, 6:56 am)30.34 "Hg (Sep 8, 6:56 am)
Low44 °F (Sep 16, 12:56 am)27% (Sep 5, 1:56 pm)29.82 "Hg (Sep 4, 2:56 pm)
Average66 °F78%30.14 "Hg
* Reported Sep 4 1:56 pm — Sep 19 1:56 pm, Barnstable. Weather by CustomWeather, © 2020

Note: Actual official high and low records may vary slightly from our data, if they occured in-between our weather recording intervals... More about our weather records

Barnstable Weather History for the Previous 24 Hours

Scroll right to see more
 ConditionsComfort  
Time TempWeatherWind HumidityBarometerVisibility
1:56 pm
Sat, Sep 19
60 °FSunny.16 mph36%30.26 "Hg10 mi
12:56 pm61 °FSunny.17 mph35%30.25 "Hg10 mi
11:56 am60 °FSunny.20 mph39%30.26 "Hg10 mi
10:56 am61 °FSunny.15 mph39%30.25 "Hg10 mi
9:56 am60 °FPassing clouds.15 mph44%30.24 "Hg10 mi
8:56 am58 °FSunny.16 mph51%30.22 "Hg10 mi
7:56 am57 °FPassing clouds.14 mph53%30.20 "Hg10 mi
6:56 am55 °FSunny.12 mph55%30.17 "Hg10 mi
5:56 am55 °FPassing clouds.15 mph57%30.15 "Hg10 mi
4:56 am55 °FClear.16 mph57%30.11 "Hg10 mi
3:56 am56 °FClear.18 mph60%30.09 "Hg10 mi
2:56 am57 °FClear.18 mph58%30.08 "Hg10 mi
1:56 am58 °FMostly cloudy.17 mph58%30.07 "Hg10 mi
12:56 am59 °FPartly cloudy.20 mph60%30.04 "Hg10 mi
11:56 pm
Fri, Sep 18
59 °FPartly cloudy.10 mph72%30.03 "Hg10 mi
10:56 pm58 °FClear.10 mph78%30.02 "Hg10 mi
9:56 pm58 °FClear.12 mph72%30.00 "Hg10 mi
8:56 pm58 °FClear.10 mph72%29.99 "Hg10 mi
7:56 pm58 °FClear.13 mph72%29.96 "Hg10 mi
6:56 pm59 °FOvercast.14 mph67%29.94 "Hg10 mi
5:56 pm59 °FSunny.15 mph75%29.93 "Hg10 mi
4:56 pm60 °FPartly sunny.18 mph75%29.92 "Hg10 mi
3:56 pm59 °FOvercast.20 mph81%29.90 "Hg10 mi
Weather by CustomWeather, © 2020

See weather overview